Regional Weather Roundup
Issued by NWS

Home | Current Version | Previous Version | Text Only | Print | Product List | Glossary On
Versions: 1 2 3 4 5 6 7 8 9 10 11 12 13 14 15 16 17 18 19 20 21 22 23 24 25 26 27 28 29 30 31 32 33 34 35 36 37 38 39 40 41 42 43 44 45 46 47 48 49 50
000
ASUS43 KDTX 261210
RWRMI
MICHIGAN HOURLY REGIONAL WEATHER ROUNDUP
NATIONAL WEATHER SERVICE DETROIT/PONTIAC MI
800 AM EDT TUE JUL 26 2016

NOTE: "FAIR" INDICATES FEW OR NO CLOUDS BELOW 12,000 FEET WITH NO
SIGNIFICANT WEATHER AND/OR OBSTRUCTION TO VISIBILITY.

MIZ047>049-052>055-059>063-066>070-074>076-081>083-261300-
SOUTHEAST LOWER MICHIGAN

CITY           SKY/WX    TMP DP  RH WIND       PRES   REMARKS
ADRIAN         MOSUNNY   67  65  93 N3        30.09R
6HR MIN TEMP:  63; 6HR MAX TEMP:  69;

ALMA           SUNNY     65  65 100 CALM      30.08R
ANN ARBOR      SUNNY     70  63  78 CALM      30.07R
BAD AXE        MOSUNNY   65  61  88 CALM      30.07R
CARO           SUNNY     64  61  91 CALM      30.06R
DETROIT CITY   SUNNY     71  64  78 CALM      30.07R
6HR MIN TEMP:  66; 6HR MAX TEMP:  75;

DETROIT        MOSUNNY   71  62  73 CALM      30.07R
6HR MIN TEMP:  66; 6HR MAX TEMP:  72;

FLINT          SUNNY     68  62  81 CALM      30.07R
6HR MIN TEMP:  60; 6HR MAX TEMP:  69;

GROSSE ILE     SUNNY     72  64  77 CALM      30.06R
6HR MIN TEMP:  65; 6HR MAX TEMP:  74;

HILLSDALE      SUNNY     65  63  91 N3        30.09R
6HR MIN TEMP:  59; 6HR MAX TEMP:  84;

HOWELL         SUNNY     66  64  90 CALM      30.08R
6HR MIN TEMP:  60; 6HR MAX TEMP:  67;


CITY           SKY/WX    TMP DP  RH WIND       PRES   REMARKS
JACKSON        SUNNY     67  66  97 CALM      30.09R
6HR MIN TEMP:  61; 6HR MAX TEMP:  67;

LAMBERTVILLE   SUNNY     69  64  84 CALM      30.07S
6HR MIN TEMP:  63; 6HR MAX TEMP:  71;

LANSING        SUNNY     68  63  84 CALM      30.08S
6HR MIN TEMP:  61; 6HR MAX TEMP:  68;

LAPEER         FAIR      63  61  93 CALM      30.07S
6HR MIN TEMP:  56; 6HR MAX TEMP:  63;

MASON          SUNNY     64  63  97 E5        30.09R FOG
MONROE         SUNNY     67  65  91 CALM      30.06S
6HR MIN TEMP:  62; 6HR MAX TEMP:  69;

MT. CLEMENS    MOSUNNY   69  65  87 NW3       30.04R
6HR MIN TEMP:  62; 6HR MAX TEMP:  69;

PONTIAC        MOSUNNY   69  63  81 NW3       30.06S
6HR MIN TEMP:  62; 6HR MAX TEMP:  71;

PORT HURON     SUNNY     64  64 100 NW3       30.06S
TRI CITIES     SUNNY     67  63  87 W5        30.07R
6HR MIN TEMP:  62; 6HR MAX TEMP:  69;

MIDLAND        FAIR      64  63  94 CALM      30.06S
TROY           SUNNY     71  63  76 CALM      30.08R
SAGINAW HB     SUNNY     68  63  83 SW3       30.06R
$$
MIZ043>046-050>051-056>058-064>065-071>073-077>080-261300-
SOUTHWEST LOWER MICHIGAN

CITY           SKY/WX    TMP DP  RH WIND       PRES   REMARKS
BATTLE CREEK   SUNNY     65  65 100 CALM      30.09R
6HR MIN TEMP:  60; 6HR MAX TEMP:  65;

BENTON HARBOR  SUNNY     67  63  87 CALM      30.07S
6HR MIN TEMP:  62; 6HR MAX TEMP:  67;

BIG RAPIDS     SUNNY     64  64 100 CALM      30.06S
6HR MIN TEMP:  59; 6HR MAX TEMP:  64;

COLDWATER      SUNNY     67  66  97 CALM      30.09S
6HR MIN TEMP:  60; 6HR MAX TEMP:  67;

FREMONT        PTSUNNY   65  65 100 CALM      30.06S FOG
HOLLAND        SUNNY     69  66  90 CALM      30.08R
6HR MIN TEMP:  62; 6HR MAX TEMP:  69;

GRAND RAPIDS   MOSUNNY   70  66  87 W5        30.08R
6HR MIN TEMP:  63; 6HR MAX TEMP:  70;

IONIA          FAIR      65  63  93 CALM      30.07S FOG
6HR MIN TEMP:  61; 6HR MAX TEMP:  65;

KALAMAZOO      SUNNY     67  63  87 CALM      30.09S
6HR MIN TEMP:  61; 6HR MAX TEMP:  67;

LUDINGTON      SUNNY     65  65 100 CALM      30.05R
6HR MIN TEMP:  59; 6HR MAX TEMP:  71;

MARSHALL       SUNNY     65  64  98 CALM      30.09R
6HR MIN TEMP:  60; 6HR MAX TEMP:  65;

MOUNT PLEASANT MOSUNNY   67  66  97 CALM      30.06S
6HR MIN TEMP:  61; 6HR MAX TEMP:  67;

MUSKEGON       MOSUNNY   72  70  93 CALM      30.06S
6HR MIN TEMP:  64; 6HR MAX TEMP:  72;

SOUTH HAVEN    SUNNY     66  66 100 CALM      30.07S
$$
MIZ016>042-261300-
NORTHERN LOWER MICHIGAN

CITY           SKY/WX    TMP DP  RH WIND       PRES   REMARKS
ALPENA         SUNNY     66  57  72 SW3       30.03R
6HR MIN TEMP:  56; 6HR MAX TEMP:  66;

BEAVER ISLAND  SUNNY     70  65  86 SW5       30.01S
6HR MIN TEMP:  59; 6HR MAX TEMP:  70;

BELLAIRE       SUNNY     62  60  93 CALM      30.04R
6HR MIN TEMP:  55; 6HR MAX TEMP:  62;

CADILLAC       FOG       64  62  95 SW3       30.07R VSB 1/2
CHARLEVOIX     SUNNY     67  63  89 CALM      30.05R
6HR MIN TEMP:  63; 6HR MAX TEMP:  67;

FRANKFORT      SUNNY     63  61  93 CALM      30.04R
GAYLORD        SUNNY     63  56  78 SW3       30.06R
6HR MIN TEMP:  56; 6HR MAX TEMP:  63;

GRAYLING       SUNNY     61  58  90 CALM      30.06S
HARBOR SPRINGS SUNNY     66  62  87 CALM      30.02S
HOUGHTON LAKE  SUNNY     62  59  90 CALM      30.07R
6HR MIN TEMP:  54; 6HR MAX TEMP:  62;

MANISTEE       MOSUNNY   62  62 100 E3        30.04R
OSCODA         SUNNY     67  58  72 CALM      30.03R
6HR MIN TEMP:  59; 6HR MAX TEMP:  67;

ROGERS CITY    SUNNY     68  57  66 W3        30.02S
TRAVERSE CITY  SUNNY     68  63  84 CALM      30.02R
6HR MIN TEMP:  61; 6HR MAX TEMP:  68;

$$
MIZ007>008-015-261300-
EASTERN UPPER MICHIGAN

CITY           SKY/WX    TMP DP  RH WIND       PRES   REMARKS
KINROSS        SUNNY     64  59  83 W6        30.01R
6HR MIN TEMP:  58; 6HR MAX TEMP:  64;

MACKINAC ISLAN SUNNY     69  63  81 SW7       30.00S
6HR MIN TEMP:  65; 6HR MAX TEMP:  69;

S. S. MARIE    SUNNY     64  60  87 CALM      29.99S
6HR MIN TEMP:  56; 6HR MAX TEMP:  64;

MUNISING         N/A     66  60  81 S8        29.99
6HR MIN TEMP:  62; 6HR MAX TEMP:  67;

$$
MIZ004>006-011>014-085-261300-
CENTRAL UPPER MICHIGAN

CITY           SKY/WX    TMP DP  RH WIND       PRES   REMARKS
MANISTIQUE     SUNNY     70  64  83 W5        30.01R
ESCANABA       SUNNY     64  61  88 W6        30.00R
6HR MIN TEMP:  59; 6HR MAX TEMP:  64;

MENOMINEE      MOSUNNY  N/A N/A N/A VRB3      30.04R
SAWYER-GWINN   MOSUNNY   59  57  94 CALM      30.03R
$$
MIZ001>003-009>011-084-261300-
WESTERN UPPER MICHIGAN

CITY           SKY/WX    TMP DP  RH WIND       PRES   REMARKS
IRON MOUNTAIN  SUNNY     65  59  81 CALM      30.04R
6HR MIN TEMP:  57; 6HR MAX TEMP:  65;

HOUGHTON       SUNNY     70  62  76 W14       29.99R
6HR MIN TEMP:  63; 6HR MAX TEMP:  70;

COPPER HARBOR    N/A     72  61  68 VRB5      29.96R
6HR MIN TEMP:  68; 6HR MAX TEMP:  72;

IRONWOOD       SUNNY     64  64 100 CALM      30.01F
6HR MIN TEMP:  59; 6HR MAX TEMP:  64;

$$

ABBREVIATIONS USED IN REMARKS
   TC - TEMPERATURE IN CELSIUS
  WCI - WIND CHILL INDEX
   HX - HEAT INDEX
  VSB - VISIBILITY





USA.gov is the U.S. government's official web portal to all federal, state and local government web resources and services.